Precipitable_Water
0.80 0.79 0.85 0.91 0.98 1.06 1.15 1.24 1.24 1.22 1.18 1.14 1.19 1.17 1.10 1.09 1.06 1.07 1.11 1.10 1.11 1.08 1.06 1.02 1.00 1.02 1.06 1.10 1.04 0.93 0.87 0.83
0.84 0.76 0.80 0.82 0.89 0.94 1.00 1.07 1.11 1.09 1.01 1.01 1.02 0.96 1.01 1.02 1.06 1.06 1.12 1.09 1.08 1.05 0.97 0.97 1.01 1.03 1.05 1.07 1.01 0.93 0.93 0.97
0.78 0.72 0.74 0.75 0.78 0.85 0.87 0.93 0.95 0.93 0.91 0.93 0.98 0.93 0.95 0.96 0.96 1.01 1.10 1.12 1.10 1.07 1.01 0.99 0.99 1.03 1.09 1.11 1.07 0.99 1.02 1.04
0.68 0.68 0.69 0.71 0.71 0.74 0.80 0.83 0.84 0.86 0.86 0.87 0.90 0.89 0.90 0.83 0.86 0.89 0.97 1.04 1.06 1.07 1.06 1.12 1.09 1.15 1.12 1.13 1.15 1.10 1.03 1.08
0.72 0.66 0.62 0.63 0.64 0.71 0.76 0.80 0.82 0.84 0.84 0.82 0.78 0.73 0.71 0.77 0.79 0.86 0.88 0.96 1.01 1.05 1.05 1.08 1.14 1.17 1.14 1.14 1.17 1.13 1.11 1.05
0.70 0.68 0.66 0.64 0.65 0.67 0.73 0.79 0.79 0.80 0.79 0.78 0.74 0.72 0.73 0.77 0.81 0.81 0.80 0.87 0.97 0.99 1.02 1.02 1.05 1.12 1.14 1.17 1.18 1.17 1.17 1.12
0.75 0.75 0.76 0.68 0.70 0.70 0.71 0.73 0.74 0.77 0.77 0.76 0.75 0.78 0.81 0.81 0.79 0.79 0.82 0.86 0.94 1.01 1.05 1.07 1.08 1.13 1.15 1.16 1.20 1.17 1.14 1.12
0.75 0.73 0.70 0.71 0.68 0.69 0.71 0.72 0.69 0.74 0.76 0.80 0.81 0.83 0.86 0.87 0.89 0.90 0.91 0.94 1.03 1.12 1.19 1.21 1.24 1.26 1.28 1.25 1.18 1.13 1.10 1.09
0.73 0.73 0.76 0.69 0.68 0.70 0.72 0.71 0.71 0.74 0.76 0.79 0.88 0.94 1.03 1.05 1.08 1.09 1.10 1.10 1.09 1.12 1.19 1.23 1.31 1.33 1.32 1.25 1.17 1.12 1.11 1.04
0.73 0.75 0.79 0.83 0.80 0.75 0.74 0.73 0.72 0.72 0.75 0.82 0.88 0.97 1.03 1.12 1.15 1.16 1.12 1.18 1.22 1.24 1.26 1.25 1.31 1.31 1.18 1.15 1.09 1.07 1.01 1.03
0.69 0.75 0.79 0.84 0.89 0.87 0.88 0.85 0.75 0.73 0.77 0.80 0.88 0.97 1.04 1.09 1.18 1.19 1.27 1.30 1.32 1.32 1.22 1.28 1.27 1.18 1.10 1.06 1.02 0.98 0.91 0.91
0.65 0.74 0.80 0.85 0.93 0.98 0.93 0.93 0.95 0.94 0.89 0.86 0.94 0.99 1.07 1.15 1.21 1.33 1.39 1.43 1.33 1.11 1.15 1.17 1.20 1.12 1.04 1.01 1.00 0.91 0.87 0.84
0.58 0.66 0.75 0.82 0.90 0.96 0.94 1.00 1.06 1.11 1.16 1.21 1.15 1.19 1.21 1.21 1.31 1.37 1.34 1.11 1.17 1.22 1.17 1.14 1.13 1.08 1.02 0.96 0.88 0.86 0.81 0.79
0.55 0.58 0.61 0.73 0.81 0.85 0.90 1.04 1.11 1.17 1.20 1.19 1.20 1.25 1.30 1.30 1.28 1.28 1.20 1.10 1.05 1.08 1.10 1.07 1.07 1.04 0.96 0.91 0.88 0.83 0.82 0.81
0.54 0.57 0.54 0.59 0.71 0.77 0.86 0.92 0.97 1.10 1.16 1.00 1.04 1.18 1.23 1.19 1.17 1.15 1.13 1.09 1.05 1.07 1.10 1.07 1.03 0.97 0.91 0.85 0.85 0.83 0.74 0.77
0.52 0.59 0.63 0.62 0.62 0.69 0.77 0.84 0.94 1.00 0.98 0.88 0.91 1.01 1.06 1.13 1.09 1.06 1.09 1.07 1.06 1.06 1.02 0.99 0.96 0.92 0.84 0.85 0.73 0.76 0.72 0.75
0.53 0.61 0.66 0.64 0.65 0.69 0.80 0.84 0.90 0.93 0.99 0.93 0.92 0.90 0.98 1.03 0.98 1.02 1.04 1.01 1.00 0.98 0.96 0.94 0.86 0.80 0.75 0.72 0.75 0.71 0.71 0.66
0.55 0.62 0.61 0.63 0.63 0.64 0.70 0.80 0.90 0.91 0.90 0.88 0.90 0.92 0.93 0.92 0.94 0.95 0.96 0.96 0.94 0.92 0.85 0.79 0.74 0.71 0.69 0.69 0.68 0.66 0.62 0.57
0.55 0.62 0.66 0.69 0.68 0.70 0.73 0.78 0.81 0.87 0.86 0.84 0.87 0.89 0.90 0.87 0.87 0.89 0.90 0.89 0.85 0.75 0.72 0.71 0.65 0.62 0.63 0.63 0.61 0.57 0.50 0.41
Wind_Speed
4 5 6 5 4 5 8 16 18 18 19 21 23 23 24 25 23 23 23 23 22 20 19 18 16 15 14 14 13 13 12 12
5 6 7 6 6 8 10 15 16 18 17 18 22 24 21 23 23 23 22 21 21 19 18 17 17 16 15 15 15 15 15 14
7 7 8 9 8 9 12 14 15 17 18 18 19 20 19 21 23 22 21 20 20 18 17 19 18 18 17 16 16 16 17 18
9 9 10 10 11 12 14 15 16 17 18 17 17 18 18 21 22 21 20 19 19 17 17 15 18 17 17 16 17 17 18 20
10 11 11 12 13 13 14 15 16 17 18 18 18 17 18 20 21 19 19 19 19 20 19 18 18 17 16 17 17 19 20 21
13 13 14 14 14 15 15 16 17 18 18 18 18 17 17 17 19 19 19 19 20 21 21 20 20 20 20 20 21 21 22 23
16 16 15 15 16 16 16 17 17 19 19 19 19 18 17 18 19 19 19 20 20 21 22 21 21 21 21 22 22 23 24 24
16 18 17 17 17 18 18 18 19 19 19 19 19 18 18 18 19 19 19 19 19 19 19 21 21 20 21 21 22 24 25 25
16 18 19 19 20 20 20 20 20 21 20 21 20 20 19 19 19 19 21 20 20 19 20 21 21 20 21 23 23 24 24 24
19 18 19 20 21 22 24 23 23 23 23 23 23 22 22 22 22 22 23 23 23 22 22 21 21 20 20 21 21 22 22 23
20 20 20 20 22 23 23 25 26 26 25 25 25 25 25 25 25 25 25 25 24 25 22 20 20 19 19 20 21 21 22 22
20 21 21 22 24 23 24 24 26 27 28 28 28 28 28 27 28 28 26 27 22 17 22 21 20 20 20 20 21 22 22 22
16 19 20 22 24 25 25 25 26 25 25 27 28 29 29 27 30 28 30 25 19 20 20 21 21 21 21 21 22 22 22 22
14 16 17 21 22 25 25 25 25 24 24 25 26 30 34 26 23 23 22 18 19 20 20 20 20 21 22 23 22 22 22 22
14 13 13 14 19 21 22 23 24 24 23 20 21 19 21 27 23 21 21 20 19 19 19 19 21 22 23 23 22 22 22 22
16 14 13 14 15 17 20 22 22 21 21 20 19 18 19 21 21 21 20 19 19 19 20 21 22 23 22 21 22 22 22 23
20 18 17 17 16 16 17 18 18 19 19 19 18 18 18 18 18 18 18 19 20 21 22 22 22 22 21 21 21 22 24 25
21 20 18 18 18 17 16 17 18 19 19 20 19 18 18 18 19 19 20 21 21 21 21 21 21 21 21 21 23 24 26 27
21 21 19 18 17 17 16 17 17 18 19 19 20 20 20 20 20 21 21 22 21 21 21 21 21 21 22 23 24 25 26 28
Wind_Direction
195 190 186 177 168 170 170 188 188 185 187 193 195 192 191 195 197 201 203 201 203 204 205 204 210 216 219 223 229 233 238 242
191 187 184 176 163 156 155 159 165 173 177 178 185 189 194 199 199 194 196 197 198 201 206 211 217 218 224 231 237 239 244 251
193 187 185 180 171 164 159 161 166 169 170 172 174 180 186 185 188 188 192 197 201 206 214 222 221 228 233 238 243 245 251 257
189 186 187 183 181 175 172 171 169 169 172 175 177 183 188 187 189 193 200 204 207 213 216 218 221 226 234 241 246 250 259 266
197 193 190 190 186 182 181 180 180 179 178 178 178 179 183 190 195 201 208 213 217 220 224 226 227 234 239 247 254 257 262 271
205 202 199 196 193 192 190 189 189 188 187 186 187 191 194 197 204 210 217 221 224 227 230 233 237 241 248 254 258 262 268 273
211 209 206 206 202 201 200 198 197 195 195 197 201 204 207 211 214 219 223 227 232 234 235 238 242 249 254 259 262 265 271 273
210 211 213 210 207 206 206 205 205 205 207 209 212 215 218 219 221 224 228 230 234 235 238 240 245 252 255 261 264 268 272 274
216 215 217 217 215 214 214 216 216 217 219 221 224 226 228 229 231 235 235 238 239 241 242 244 246 254 260 265 268 271 273 274
223 223 223 222 222 222 223 224 226 227 228 230 233 233 235 236 240 242 243 242 245 247 246 250 252 258 262 266 269 272 275 274
229 229 229 229 229 229 230 232 232 233 235 237 238 238 241 243 244 246 245 245 248 246 246 252 253 256 263 269 270 275 276 276
235 235 237 237 237 234 235 237 238 239 241 242 243 245 246 248 249 251 251 244 249 238 244 251 256 255 267 270 270 275 275 275
243 244 243 241 238 237 241 243 244 245 246 246 248 247 247 249 253 255 267 260 250 252 252 253 255 262 269 271 272 274 273 275
254 256 250 243 241 241 245 248 251 250 254 253 257 259 243 243 255 253 256 260 255 256 256 254 255 265 271 273 271 272 276 274
247 254 253 248 244 246 247 249 252 253 255 256 260 260 248 244 252 253 255 255 255 253 256 258 265 270 273 273 270 272 277 275
246 246 254 258 256 255 251 250 250 248 250 257 258 258 253 248 247 250 250 249 252 257 261 266 269 272 271 267 271 272 275 278
246 242 248 256 259 261 258 252 249 249 250 254 255 254 250 244 246 246 247 252 257 262 266 268 270 271 268 271 270 275 279 283
242 243 251 250 253 254 251 250 252 250 251 253 253 249 246 246 247 248 253 256 262 264 265 267 269 269 270 271 275 278 282 286
241 243 246 248 250 251 251 251 253 250 250 251 250 249 247 247 249 253 256 260 261 262 265 267 269 270 272 274 277 281 284 288